Location: Falconara Alta
(43.6167°N, 13.4000°E)
Time: 13:54:14
(UTC+00:00)

Resurs 1-3 - Visible Passes

Search period start: 06 August 2020 00:00
Search period end: 16 August 2020 00:00
Orbit: 630 x 632 km, 97.9° (Epoch: 06 August)

Date Brightness Start Highest point End Pass type
(mag) Time Alt. Az. Time Alt. Az. Time Alt. Az.
06 Aug 3.9 19:32:22 10° S 19:36:44 68° WSW 19:41:07 10° NNW visible
07 Aug 4.8 19:53:19 10° SSW 19:57:27 40° W 20:01:36 10° NNW visible
08 Aug 5.6 20:14:38 10° SSW 20:18:14 25° W 20:21:52 10° NW visible
09 Aug 3.9 18:58:13 10° SSE 19:02:27 52° ENE 19:06:44 10° N visible
09 Aug 6.2 20:36:29 10° SW 20:39:06 15° W 20:41:42 10° NW visible
10 Aug 3.6 19:18:42 10° SSE 19:23:04 86° ENE 19:27:30 10° NNW visible
11 Aug 4.2 19:39:28 10° S 19:43:46 57° W 19:48:06 10° NNW visible
12 Aug 5.1 20:00:31 10° SSW 20:04:30 34° W 20:08:31 10° NNW visible
13 Aug 4.3 18:44:50 10° SE 18:48:52 37° ENE 18:52:56 10° N visible
13 Aug 5.8 20:21:59 10° SW 20:25:19 21° W 20:28:40 10° NW visible
14 Aug 3.7 19:05:08 10° SSE 19:09:27 62° ENE 19:13:48 10° N visible
14 Aug 6.3 20:44:09 10° WSW 20:46:11 13° W 20:48:13 10° WNW visible
15 Aug 3.7 19:25:43 10° S 19:30:06 80° WSW 19:34:31 10° NNW visible
